| time (UTC) | temp F | wind direction | speed MPH | gust MPH | rain 1hr in | rain 24hr in | rain mn in | humidity % | barometer mb |
| 20260510204503 | 55 | 18 | 2.0 | 4.0 | 0.00 | 0.63 | 0.63 | 92 | 1012.5 |
| 20260510203603 | 55 | 19 | 3.0 | 5.0 | 0.00 | 0.63 | 0.63 | 92 | 1012.4 |
| 20260510202917 | 55 | 23 | 3.0 | 5.0 | 0.00 | 0.63 | 0.63 | 92 | 1012.4 |
| 20260510201804 | 55 | 25 | 2.0 | 5.0 | 0.00 | 0.63 | 0.63 | 92 | 1012.6 |
| 20260510200903 | 55 | 16 | 2.0 | 4.0 | 0.00 | 0.63 | 0.63 | 93 | 1012.7 |
| 20260510200217 | 55 | 15 | 2.0 | 4.0 | 0.00 | 0.63 | 0.63 | 93 | 1012.7 |
| 20260510195403 | 55 | 25 | 2.0 | 4.0 | 0.00 | 0.63 | 0.63 | 92 | 1012.7 |
| 20260510194718 | 55 | 29 | 2.0 | 3.0 | 0.00 | 0.63 | 0.63 | 92 | 1012.8 |
| 20260510193817 | 55 | 21 | 2.0 | 4.0 | 0.00 | 0.63 | 0.63 | 92 | 1012.8 |
| 20260510192917 | 55 | 32 | 1.0 | 4.0 | 0.00 | 0.63 | 0.63 | 93 | 1012.8 |
| 20260510191803 | 55 | 32 | 1.0 | 3.0 | 0.00 | 0.63 | 0.63 | 93 | 1012.8 |
| 20260510190903 | 55 | 12 | 1.0 | 3.0 | 0.00 | 0.63 | 0.63 | 92 | 1012.8 |
| 20260510190003 | 55 | 14 | 2.0 | 3.0 | 0.00 | 0.63 | 0.63 | 92 | 1012.8 |
| 20260510185403 | 55 | 21 | 2.0 | 4.0 | 0.00 | 0.63 | 0.63 | 92 | 1012.7 |
| 20260510184503 | 55 | 15 | 2.0 | 4.0 | 0.00 | 0.63 | 0.63 | 92 | 1012.6 |
| 20260510183603 | 55 | 28 | 2.0 | 4.0 | 0.00 | 0.63 | 0.63 | 91 | 1012.6 |
| 20260510182703 | 55 | 15 | 2.0 | 3.0 | 0.00 | 0.63 | 0.63 | 92 | 1012.7 |
| 20260510182018 | 56 | 23 | 2.0 | 5.0 | 0.00 | 0.63 | 0.63 | 92 | 1012.6 |
| 20260510180903 | 56 | 27 | 2.0 | 5.0 | 0.00 | 0.63 | 0.63 | 91 | 1012.5 |
| 20260510180003 | 56 | 29 | 2.0 | 4.0 | 0.00 | 0.63 | 0.63 | 91 | 1012.5 |
| 20260510175618 | 56 | 27 | 2.0 | 4.0 | 0.00 | 0.63 | 0.63 | 91 | 1012.5 |
| 20260510174717 | 56 | 53 | 2.0 | 6.0 | 0.00 | 0.63 | 0.63 | 91 | 1012.4 |
| 20260510173603 | 56 | 39 | 2.0 | 4.0 | 0.00 | 0.63 | 0.63 | 90 | 1012.6 |
| 20260510172703 | 56 | 60 | 2.0 | 5.0 | 0.00 | 0.63 | 0.63 | 89 | 1012.5 |
| 20260510172017 | 56 | 58 | 2.0 | 6.0 | 0.00 | 0.63 | 0.63 | 89 | 1012.5 |
| 20260510170903 | 56 | 71 | 3.0 | 8.0 | 0.00 | 0.63 | 0.63 | 89 | 1012.7 |
| 20260510170004 | 56 | 68 | 2.0 | 6.0 | 0.00 | 0.63 | 0.63 | 89 | 1012.5 |
| 20260510165403 | 56 | 76 | 2.0 | 5.0 | 0.00 | 0.63 | 0.63 | 89 | 1012.6 |
| 20260510164503 | 56 | 57 | 3.0 | 7.0 | 0.01 | 0.63 | 0.63 | 89 | 1012.6 |
| 20260510163603 | 56 | 57 | 2.0 | 6.0 | 0.01 | 0.63 | 0.63 | 88 | 1012.6 |
| 20260510162703 | 57 | 68 | 3.0 | 5.0 | 0.01 | 0.63 | 0.63 | 88 | 1012.7 |
| 20260510161803 | 57 | 67 | 2.0 | 5.0 | 0.01 | 0.63 | 0.63 | 88 | 1012.8 |
| 20260510160903 | 57 | 64 | 2.0 | 5.0 | 0.02 | 0.63 | 0.63 | 88 | 1012.9 |
| 20260510160003 | 57 | 77 | 2.0 | 4.0 | 0.02 | 0.63 | 0.63 | 89 | 1012.9 |
| 20260510155403 | 57 | 83 | 1.0 | 4.0 | 0.02 | 0.63 | 0.63 | 88 | 1013.0 |
| 20260510154503 | 57 | 109 | 0.0 | 3.0 | 0.02 | 0.62 | 0.63 | 89 | 1013.1 |
| 20260510153819 | 57 | 97 | 1.0 | 3.0 | 0.02 | 0.62 | 0.62 | 89 | 1013.2 |
| 20260510152703 | 58 | 113 | 1.0 | 2.0 | 0.02 | 0.62 | 0.62 | 88 | 1013.2 |
| 20260510150003 | 58 | 72 | 2.0 | 4.0 | 0.00 | 0.61 | 0.61 | 84 | 1013.2 |
| 20260510145403 | 58 | 74 | 2.0 | 4.0 | 0.00 | 0.61 | 0.61 | 83 | 1013.3 |
| 20260510144503 | 58 | 85 | 3.0 | 4.0 | 0.00 | 0.61 | 0.61 | 83 | 1013.4 |
| 20260510143603 | 58 | 99 | 2.0 | 7.0 | 0.00 | 0.61 | 0.61 | 83 | 1013.5 |
| 20260510142703 | 58 | 87 | 2.0 | 6.0 | 0.00 | 0.61 | 0.61 | 84 | 1013.4 |
| 20260510142018 | 58 | 84 | 2.0 | 4.0 | 0.00 | 0.61 | 0.61 | 85 | 1013.4 |
| 20260510140903 | 58 | 93 | 2.0 | 4.0 | 0.00 | 0.61 | 0.61 | 87 | 1013.5 |
| 20260510140003 | 57 | 70 | 3.0 | 4.0 | 0.00 | 0.61 | 0.61 | 86 | 1013.6 |
| 20260510135618 | 57 | 72 | 3.0 | 7.0 | 0.00 | 0.61 | 0.61 | 85 | 1013.6 |
| 20260510134503 | 57 | 83 | 2.0 | 5.0 | 0.00 | 0.61 | 0.61 | 84 | 1013.8 |
| 20260510133603 | 57 | 83 | 3.0 | 4.0 | 0.00 | 0.61 | 0.61 | 84 | 1013.8 |
| 20260510132704 | 57 | 84 | 4.0 | 8.0 | 0.00 | 0.61 | 0.61 | 86 | 1013.8 |
| 20260510131803 | 57 | 91 | 3.0 | 8.0 | 0.00 | 0.61 | 0.61 | 87 | 1014.1 |
| 20260510130904 | 57 | 92 | 3.0 | 7.0 | 0.00 | 0.61 | 0.61 | 87 | 1014.2 |
| 20260510130003 | 57 | 95 | 3.0 | 7.0 | 0.00 | 0.61 | 0.61 | 89 | 1014.0 |
| 20260510125403 | 57 | 88 | 3.0 | 7.0 | 0.00 | 0.61 | 0.61 | 89 | 1014.1 |
| 20260510124503 | 57 | 71 | 5.0 | 9.0 | 0.00 | 0.61 | 0.61 | 89 | 1014.0 |
| 20260510123604 | 57 | 66 | 4.0 | 10.0 | 0.01 | 0.61 | 0.61 | 88 | 1014.2 |
| 20260510122703 | 57 | 66 | 3.0 | 9.0 | 0.02 | 0.61 | 0.61 | 89 | 1014.3 |
| 20260510121803 | 57 | 61 | 3.0 | 7.0 | 0.03 | 0.61 | 0.61 | 90 | 1014.4 |
| 20260510120903 | 57 | 31 | 2.0 | 7.0 | 0.04 | 0.61 | 0.61 | 91 | 1014.4 |
| 20260510120003 | 57 | 10 | 2.0 | 4.0 | 0.05 | 0.61 | 0.61 | 92 | 1014.5 |
| 20260510115403 | 57 | 25 | 1.0 | 4.0 | 0.05 | 0.61 | 0.61 | 92 | 1014.5 |
| 20260510114504 | 57 | 256 | 2.0 | 3.0 | 0.06 | 0.61 | 0.61 | 93 | 1014.7 |
| 20260510113603 | 57 | 291 | 1.0 | 5.0 | 0.06 | 0.60 | 0.60 | 92 | 1014.6 |
| 20260510112703 | 57 | 344 | 2.0 | 3.0 | 0.05 | 0.58 | 0.58 | 93 | 1014.8 |
| 20260510112017 | 57 | 2 | 2.0 | 4.0 | 0.06 | 0.57 | 0.58 | 93 | 1014.8 |
| 20260510110903 | 57 | 351 | 3.0 | 5.0 | 0.06 | 0.57 | 0.57 | 93 | 1014.9 |
| 20260510110003 | 57 | 11 | 2.0 | 5.0 | 0.07 | 0.56 | 0.56 | 93 | 1014.8 |
| 20260510105403 | 57 | 347 | 2.0 | 5.0 | 0.08 | 0.56 | 0.56 | 94 | 1014.8 |
| 20260510104503 | 57 | 340 | 2.0 | 5.0 | 0.08 | 0.55 | 0.55 | 94 | 1015.0 |
| 20260510103603 | 57 | 309 | 3.0 | 5.0 | 0.08 | 0.54 | 0.54 | 94 | 1015.1 |
| 20260510102704 | 57 | 335 | 3.0 | 7.0 | 0.07 | 0.54 | 0.54 | 93 | 1015.1 |
| 20260510102018 | 57 | 5 | 3.0 | 6.0 | 0.06 | 0.52 | 0.52 | 93 | 1015.1 |
| 20260510100903 | 57 | 11 | 2.0 | 5.0 | 0.05 | 0.50 | 0.50 | 93 | 1015.0 |
| 20260510100003 | 57 | 14 | 3.0 | 5.0 | 0.03 | 0.49 | 0.49 | 93 | 1015.1 |
| 20260510095403 | 57 | 351 | 3.0 | 5.0 | 0.03 | 0.48 | 0.48 | 92 | 1015.0 |
| 20260510094503 | 57 | 358 | 2.0 | 6.0 | 0.03 | 0.47 | 0.47 | 93 | 1015.2 |
| 20260510093604 | 57 | 348 | 2.0 | 3.0 | 0.04 | 0.46 | 0.46 | 94 | 1015.2 |
| 20260510092703 | 56 | 358 | 3.0 | 4.0 | 0.07 | 0.46 | 0.46 | 93 | 1015.2 |
| 20260510092018 | 56 | 355 | 3.0 | 5.0 | 0.06 | 0.46 | 0.46 | 93 | 1015.2 |
| 20260510090903 | 56 | 20 | 3.0 | 4.0 | 0.09 | 0.46 | 0.46 | 94 | 1015.1 |
| 20260510090003 | 56 | 16 | 2.0 | 4.0 | 0.10 | 0.46 | 0.46 | 94 | 1015.1 |
| 20260510085403 | 56 | 12 | 2.0 | 4.0 | 0.12 | 0.45 | 0.45 | 94 | 1015.2 |
| 20260510084503 | 56 | 23 | 2.0 | 3.0 | 0.14 | 0.44 | 0.44 | 94 | 1015.2 |
| 20260510083603 | 56 | 46 | 2.0 | 3.0 | 0.16 | 0.43 | 0.43 | 94 | 1015.2 |
| 20260510082703 | 56 | 7 | 3.0 | 5.0 | 0.14 | 0.39 | 0.39 | 94 | 1015.2 |
| 20260510081804 | 56 | 14 | 2.0 | 5.0 | 0.15 | 0.39 | 0.39 | 94 | 1015.2 |
| 20260510080903 | 56 | 13 | 1.0 | 5.0 | 0.13 | 0.37 | 0.37 | 94 | 1015.2 |
| 20260510080003 | 56 | 276 | 1.0 | 3.0 | 0.12 | 0.35 | 0.35 | 94 | 1015.3 |
| 20260510075403 | 56 | 250 | 1.0 | 2.0 | 0.09 | 0.33 | 0.33 | 94 | 1015.2 |
| 20260510074503 | 56 | 203 | 1.0 | 2.0 | 0.06 | 0.30 | 0.30 | 94 | 1015.2 |
| 20260510073603 | 56 | 201 | 1.0 | 3.0 | 0.03 | 0.27 | 0.27 | 93 | 1015.1 |
| 20260510072703 | 56 | 341 | 1.0 | 3.0 | 0.02 | 0.25 | 0.25 | 94 | 1014.9 |
| 20260510071803 | 56 | 263 | 2.0 | 4.0 | 0.00 | 0.24 | 0.24 | 93 | 1014.8 |
| 20260510070903 | 56 | 245 | 2.0 | 6.0 | 0.00 | 0.24 | 0.24 | 93 | 1014.7 |
| 20260510070218 | 56 | 241 | 3.0 | 7.0 | 0.00 | 0.24 | 0.24 | 93 | 1014.6 |
| 20260510065403 | 56 | 236 | 2.0 | 6.0 | 0.00 | 0.24 | 0.24 | 93 | 1014.7 |
| 20260510064503 | 56 | 326 | 2.0 | 5.0 | 0.00 | 0.24 | 0.24 | 94 | 1014.8 |
| 20260510063604 | 55 | 360 | 1.0 | 5.0 | 0.00 | 0.24 | 0.24 | 94 | 1014.7 |
| 20260510062918 | 55 | 301 | 2.0 | 3.0 | 0.01 | 0.24 | 0.24 | 94 | 1014.7 |
| 20260510062017 | 55 | 288 | 3.0 | 8.0 | 0.02 | 0.24 | 0.24 | 94 | 1014.6 |
| 20260510061116 | 55 | 233 | 3.0 | 8.0 | 0.02 | 0.24 | 0.24 | 94 | 1014.6 |
| 20260510060004 | 55 | 218 | 3.0 | 6.0 | 0.02 | 0.24 | 0.24 | 94 | 1014.5 |
| 20260510055403 | 55 | 215 | 3.0 | 6.0 | 0.02 | 0.24 | 0.24 | 94 | 1014.5 |
| 20260510054716 | 55 | 207 | 3.0 | 8.0 | 0.02 | 0.24 | 0.24 | 93 | 1014.4 |
| 20260510053603 | 55 | 175 | 3.0 | 6.0 | 0.02 | 0.24 | 0.24 | 93 | 1014.4 |
| 20260510052703 | 56 | 191 | 3.0 | 7.0 | 0.02 | 0.23 | 0.23 | 92 | 1014.3 |
| 20260510051804 | 56 | 198 | 5.0 | 7.0 | 0.01 | 0.22 | 0.22 | 92 | 1014.1 |
| 20260510050903 | 56 | 195 | 2.0 | 8.0 | 0.01 | 0.22 | 0.22 | 91 | 1013.9 |
| 20260510050004 | 56 | 191 | 1.0 | 4.0 | 0.00 | 0.21 | 0.21 | 91 | 1013.9 |
| 20260510045403 | 56 | 229 | 3.0 | 4.0 | 0.00 | 0.21 | 0.21 | 90 | 1013.8 |
| 20260510044503 | 57 | 22 | 4.0 | 8.0 | 0.00 | 0.21 | 0.21 | 89 | 1013.5 |
| 20260510043603 | 56 | 17 | 4.0 | 8.0 | 0.00 | 0.21 | 0.21 | 89 | 1013.6 |
| 20260510042703 | 56 | 354 | 6.0 | 9.0 | 0.00 | 0.21 | 0.21 | 89 | 1013.4 |
| 20260510041804 | 56 | 359 | 7.0 | 12.0 | 0.00 | 0.21 | 0.21 | 89 | 1013.4 |
| 20260510040903 | 56 | 356 | 5.0 | 11.0 | 0.00 | 0.21 | 0.21 | 89 | 1013.6 |
| 20260510040004 | 56 | 13 | 4.0 | 8.0 | 0.00 | 0.21 | 0.21 | 90 | 1013.7 |
| 20260510035616 | 56 | 13 | 4.0 | 8.0 | 0.00 | 0.21 | 0.21 | 90 | 1013.6 |
| 20260510034503 | 56 | 6 | 4.0 | 8.0 | 0.00 | 0.21 | 0.21 | 90 | 1013.6 |
| 20260510033603 | 56 | 3 | 3.0 | 8.0 | 0.00 | 0.21 | 0.21 | 89 | 1013.7 |
| 20260510032916 | 57 | 15 | 3.0 | 5.0 | 0.00 | 0.21 | 0.21 | 89 | 1013.7 |
| 20260510031804 | 56 | 18 | 2.0 | 4.0 | 0.00 | 0.21 | 0.21 | 89 | 1013.8 |
| 20260510030903 | 57 | 16 | 3.0 | 4.0 | 0.00 | 0.21 | 0.21 | 89 | 1014.0 |
| 20260510030003 | 57 | 9 | 4.0 | 5.0 | 0.00 | 0.21 | 0.21 | 89 | 1014.0 |
| 20260510025403 | 57 | 10 | 5.0 | 7.0 | 0.00 | 0.21 | 0.21 | 88 | 1014.0 |
| 20260510024717 | 57 | 12 | 5.0 | 8.0 | 0.00 | 0.21 | 0.21 | 88 | 1014.0 |
| 20260510023604 | 57 | 7 | 6.0 | 10.0 | 0.01 | 0.21 | 0.21 | 89 | 1014.2 |
| 20260510022703 | 56 | 9 | 5.0 | 8.0 | 0.01 | 0.21 | 0.21 | 90 | 1014.3 |
| 20260510022017 | 56 | 12 | 4.0 | 9.0 | 0.02 | 0.21 | 0.21 | 91 | 1014.5 |
| 20260510020903 | 56 | 41 | 1.0 | 8.0 | 0.02 | 0.21 | 0.21 | 93 | 1014.6 |
| 20260510015404 | 56 | 226 | 2.0 | 4.0 | 0.18 | 0.21 | 0.21 | 92 | 1014.7 |
| 20260510014503 | 56 | 209 | 1.0 | 4.0 | 0.21 | 0.21 | 0.21 | 91 | 1014.9 |
| 20260510013603 | 56 | 218 | 1.0 | 3.0 | 0.20 | 0.20 | 0.20 | 90 | 1015.2 |
| 20260510012704 | 56 | 314 | 2.0 | 4.0 | 0.20 | 0.20 | 0.20 | 88 | 1015.0 |
| 20260510011803 | 57 | 29 | 4.0 | 9.0 | 0.20 | 0.20 | 0.20 | 85 | 1015.1 |
| 20260510010903 | 58 | 32 | 5.0 | 9.0 | 0.19 | 0.19 | 0.19 | 84 | 1015.0 |
| 20260510010003 | 59 | 107 | 4.0 | 13.0 | 0.17 | 0.17 | 0.17 | 80 | 1015.1 |
| 20260510005403 | 60 | 108 | 2.0 | 12.0 | 0.03 | 0.03 | 0.03 | 74 | 1015.3 |
| 20260510004503 | 61 | 29 | 4.0 | 6.0 | 0.00 | 0.00 | 0.00 | 69 | 1014.8 |
| 20260510003603 | 61 | 13 | 4.0 | 8.0 | 0.00 | 0.00 | 0.00 | 69 | 1014.7 |
| 20260510002703 | 60 | 14 | 4.0 | 8.0 | 0.00 | 0.00 | 0.00 | 69 | 1014.9 |
| 20260510001803 | 60 | 6 | 3.0 | 5.0 | 0.00 | 0.00 | 0.00 | 70 | 1015.0 |
| 20260510000903 | 60 | 5 | 2.0 | 5.0 | 0.00 | 0.00 | 0.00 | 71 | 1015.1 |
| 20260510000003 | 60 | 6 | 3.0 | 4.0 | 0.00 | 0.00 | 0.00 | 71 | 1015.2 |
| 20260509235403 | 60 | 13 | 3.0 | 4.0 | 0.00 | 0.00 | 0.00 | 71 | 1015.3 |
| 20260509234503 | 60 | 19 | 3.0 | 5.0 | 0.00 | 0.00 | 0.00 | 71 | 1015.3 |
| 20260509233604 | 59 | 14 | 2.0 | 5.0 | 0.00 | 0.00 | 0.00 | 72 | 1015.3 |
| 20260509232704 | 59 | 8 | 3.0 | 5.0 | 0.00 | 0.00 | 0.00 | 73 | 1015.3 |
| 20260509231803 | 58 | 350 | 2.0 | 4.0 | 0.00 | 0.00 | 0.00 | 74 | 1015.3 |
| 20260509230903 | 58 | 354 | 1.0 | 3.0 | 0.00 | 0.00 | 0.00 | 74 | 1015.4 |
| 20260509230003 | 58 | 1 | 1.0 | 3.0 | 0.00 | 0.00 | 0.00 | 74 | 1015.4 |
| 20260509225404 | 58 | 306 | 1.0 | 3.0 | 0.00 | 0.00 | 0.00 | 75 | 1015.4 |
| 20260509224503 | 58 | 253 | 1.0 | 3.0 | 0.00 | 0.00 | 0.00 | 76 | 1015.4 |
| 20260509223817 | 57 | 247 | 0.0 | 2.0 | 0.00 | 0.00 | 0.00 | 77 | 1015.4 |
| 20260509222703 | 58 | 0 | 0.0 | 0.0 | 0.00 | 0.00 | 0.00 | 76 | 1015.5 |
| 20260509221804 | 58 | 0 | 0.0 | 0.0 | 0.00 | 0.00 | 0.00 | 75 | 1015.5 |
| 20260509220903 | 58 | 0 | 0.0 | 0.0 | 0.00 | 0.00 | 0.00 | 74 | 1015.5 |
| 20260509220219 | 58 | 0 | 1.0 | 0.0 | 0.00 | 0.00 | 0.00 | 74 | 1015.4 |
| 20260509215403 | 59 | 244 | 1.0 | 3.0 | 0.00 | 0.00 | 0.00 | 74 | 1015.3 |
| 20260509214503 | 58 | 222 | 1.0 | 2.0 | 0.00 | 0.00 | 0.00 | 75 | 1015.4 |
| 20260509213603 | 58 | 207 | 1.0 | 3.0 | 0.00 | 0.00 | 0.00 | 74 | 1015.5 |
| 20260509212918 | 58 | 206 | 0.0 | 4.0 | 0.00 | 0.00 | 0.00 | 73 | 1015.4 |
| 20260509211804 | 58 | 0 | 0.0 | 0.0 | 0.00 | 0.00 | 0.00 | 75 | 1015.3 |
| 20260509210904 | 59 | 0 | 0.0 | 0.0 | 0.00 | 0.00 | 0.00 | 74 | 1015.3 |
| 20260509210003 | 59 | 0 | 0.0 | 0.0 | 0.00 | 0.00 | 0.00 | 75 | 1015.2 |
| 20260509205403 | 59 | 0 | 0.0 | 0.0 | 0.00 | 0.00 | 0.00 | 75 | 1015.3 |